Content
SEND FEEDBACK

Daily
Averages
Monthly
Summary
United States of America

ST. LOUIS - SAINT LOUIS UNIVERSITY, MISSOURI


Home > North America > United States > Missouri
Elevation: 580 feet     Latitude: 38 38N     Longitude: 090 14W

WEATHER
 
SELECT A DAY
Number of Records: 190,952;   Date Range: 1/1/95 - 12/26/14
 
SHARE

PRINT THIS DATA

[ ← Previous Day ]
WEATHER ALMANAC - FEBRUARY 25, 2013
[ Next Day → ]
[ °C ]   °F
Weather ElementAverageHighLow
Temperature38.7 °F46 °F (10:53 am)28.9 °F (1:53 am)
Dewpoint28.9 °F32 °F (7:53 pm)24.1 °F (1:53 am)
Humidity69 %86 % (9:53 pm)54 % (10:53 am)
Barometer29.91 in30.08 in (1:53 am)29.62 in (11:53 pm)
Wind Speed11.1 mph19.6 mph (11:53 pm)
Wind Gust25.3 mph (10:53 pm)
Weather ElementAverage
Visibility9.1 mi
Wind DirectionENE (60 °)

Weather ElementTotal
Precipitation0.24 in
Heating Degree Days27.6 (Base 65)
Averaged from 22 records on February 25, 2013
WEATHER CONDITIONS BREAKOUT
WIND DIRECTION BREAKOUT
WEATHER BY HOUR - FEBRUARY 25, 2013
[ °C ]   °F
Local TimeTemperatureDewpointHumidityBarometerVisibilityWind DirectionWind SpeedGust SpeedPrecipitationEventsConditions
1:53 AM28.9 °F24.1 °F82 %30.08 in9.0 miCalmClear
2:53 AM28.9 °F24.1 °F82 %30.07 in9.0 miNNE (20°)3.5 mphClear
4:53 AM28.9 °F24.1 °F82 %30.06 in10.0 miESE (110°)3.5 mphClear
5:53 AM32.0 °F25.0 °F75 %30.03 in10.0 miEast (90°)9.2 mphClear
6:53 AM32.0 °F25.0 °F75 %30.02 in9.0 miEast (90°)4.6 mphClear
7:53 AM34.0 °F27.0 °F75 %30.04 in8.0 miEast (80°)6.9 mphClear
8:53 AM39.0 °F28.0 °F65 %30.05 in10.0 miEast (90°)6.9 mphClear
9:53 AM42.1 °F28.0 °F58 %30.03 in10.0 miESE (120°)13.8 mphClear
10:53 AM46.0 °F30.0 °F54 %30.01 in10.0 miEast (90°)10.4 mphClear
11:53 AM46.0 °F30.0 °F54 %29.99 in10.0 miENE (70°)16.1 mphClear
12:53 PM46.0 °F30.0 °F54 %29.96 in10.0 miEast (90°)9.2 mphClear
1:53 PM46.0 °F30.9 °F56 %29.90 in10.0 miNE (50°)18.4 mph21.9 mphClear
2:53 PM45.0 °F30.9 °F58 %29.87 in10.0 miENE (70°)15.0 mphClear
3:53 PM45.0 °F30.9 °F58 %29.84 in10.0 miENE (60°)15.0 mph20.7 mphScattered Clouds
4:53 PM44.1 °F30.0 °F58 %29.81 in10.0 miENE (60°)16.1 mphScattered Clouds
5:53 PM41.0 °F30.9 °F67 %29.78 in10.0 miNE (50°)13.8 mphMostly Cloudy
6:53 PM41.0 °F30.9 °F67 %29.79 in10.0 miNE (50°)11.5 mphOvercast
7:53 PM39.9 °F32.0 °F73 %29.81 in10.0 miNorth (10°)10.4 mph0.00 inOvercast
8:53 PM39.0 °F30.9 °F73 %29.79 in10.0 miNNE (20°)9.2 mph0.01 inRainLight Rain
9:53 PM36.0 °F32.0 °F86 %29.75 in5.0 miNNE (30°)16.1 mph0.09 inRainLight Rain
10:53 PM36.0 °F30.9 °F82 %29.68 in6.0 miNNE (30°)15.0 mph25.3 mph0.05 inRainLight Rain
11:53 PM35.1 °F30.9 °F85 %29.62 in5.0 miNE (40°)19.6 mph25.3 mph0.09 inRainLight Rain
Hourly data recorded from KCPS, located miles away from St. Louis - Saint Louis University, Missouri







STORIES FROM OUR PARTNERS